Regional Weather Roundup
Issued by NWS

Home | Current Version | Previous Version | Text Only | Print | Product List | Glossary On
Versions: 1 2 3 4 5 6 7 8 9 10 11 12 13 14 15 16 17 18 19 20 21 22 23 24 25 26 27 28 29 30 31 32 33 34 35 36 37 38 39 40 41 42 43 44 45 46 47 48 49 50
000
ASUS43 KLSX 020259
RWRMO

WEATHER SUMMARY FOR MISSOURI
NATIONAL WEATHER SERVICE SPRINGFIELD MO
1000 PM CDT SAT AUG 01 2015

NOTE: "FAIR" INDICATES FEW OR NO CLOUDS BELOW 12,000 FEET WITH NO
       SIGNIFICANT WEATHER AND/OR OBSTRUCTIONS TO VISIBILITY.
       CURRENT SKY AND/OR WEATHER CONDITIONS ARE NOT AVAILABLE FOR
       CHILLICOTHE AND FARMINGTON.

MOZ001>031-035>038-043-044-053-054-020400-
...NORTHERN AND WESTERN MISSOURI...

CITY           SKY/WX    TMP DP  RH WIND       PRES   REMARKS
KANSAS CTY INT PTCLDY    74  62  66 SE10      29.97R
KANSAS C DTWN  PTCLDY    77  60  55 E6        29.96S
LEE`S SUMMIT   CLEAR     74  59  59 SE7       29.98S
ST JOSEPH      MOCLDY    75  63  66 S6        29.96R
CHILLICOTHE      N/A     71  59  65 NE7       29.99S
KIRKSVILLE     LGT RAIN  69  63  81 SW5       29.98R

$$
MOZ066>068-077>081-088>096-101>105-020400-
...SOUTHWEST MISSOURI...

CITY           SKY/WX    TMP DP  RH WIND       PRES   REMARKS
SPRINGFIELD    CLEAR     78  64  61 SE5       30.00R
JOPLIN         PTCLDY    77  67  71 S7        29.99R

$$
MOZ032>034-039>042-045>050-055>058-069>072-020400-
...CENTRAL MISSOURI...

CITY           SKY/WX    TMP DP  RH WIND       PRES   REMARKS
COLUMBIA       CLOUDY    71  69  93 NE6       29.98R
JEFFERSON CITY MOCLDY    72  67  84 SE3       29.96S
ROLLA          PTCLDY    70  68  93 SE5       29.99R
SEDALIA        PTCLDY    72  66  81 SW12      29.98R
WARRENSBURG    CLEAR     70  63  78 CALM      29.96F
OSAGE BEACH    MOCLDY    73  68  83 S6        29.98F

$$
MOZ051-052-059>065-020400-
...EAST CENTRAL MISSOURI...

CITY           SKY/WX    TMP DP  RH WIND       PRES   REMARKS
ST LOUIS INTL  CLOUDY    85  70  60 SW3       29.98R
SPIRIT OF STL  MOCLDY    77  74  90 CALM      29.96R
ST CHARLES     CLOUDY    79  73  82 E3        29.96R

$$
MOZ072>076-082>087-097>100-106>115-020400-
...SOUTH CENTRAL AND SOUTHEAST MISSOURI...

CITY           SKY/WX    TMP DP  RH WIND       PRES   REMARKS
CAPE GIRARDEAU CLEAR     77  73  87 E5        29.97R
FARMINGTON     CLEAR     75  70  83 CALM      30.04R
POPLAR BLUFF   CLEAR     80  73  79 CALM      29.96R
WEST PLAINS    CLEAR     73  68  84 CALM      30.02S

$$


USA.gov is the U.S. government's official web portal to all federal, state and local government web resources and services.